Home > Time Zones > World Clock > Weather > Spain > Lugo > Past weeks

Flag Weather past 2 weeks in Lugo, Galicia, Spain

Now
36 °F

Light fog.


Feels Like: 36 °F
Forecast: 47 / 57 °F
Wind: No wind

Location: Santiago / Labacolla

Current Time: Nov 29, 2014 at 2:29:58 AM

Latest Report: Nov 29, 2014 at 1:30 AM


Visibility: 1 mi

Pressure: 29.39 "Hg

Humidity: 100%

Dew point: 36 °F

Location of LugoLocation

Historic Weather in Lugo — Graph

°F

Lugo temperature yesterday

Maximum temperature yesterday: 54 °F (at 12:00 AM)
Minimum temperature yesterday: 39 °F (at 10:00 PM)
Average temperature yesterday: 47 °F

Past Weeks' High & Low Weather Summary

 TemperatureHumidityPressure
High64 °F (Nov 21, 2:00 PM)100% (Nov 14, 10:30 AM)30.15 "Hg (Nov 14, 10:30 AM)
Low34 °F (Nov 29, 1:00 AM)67% (Nov 27, 4:30 PM)28.82 "Hg (Nov 28, 5:00 AM)
Average50 °F91%29.79 "Hg
* Reported Nov 14 1:00 AM — Nov 29 1:30 AM, Lugo, Weather by CustomWeather, © 2014

Note: Actual official high and low records may vary slightly from our data, if they occured in-between our weather recording intervals... More about our weather records

Advertising

Lugo weather history for previous 24 hours

 ConditionsComfort  
Time TempWeatherWind HumidityBarometerVisibility
1:30 AM
Nov 29
36 °FLight fog.No wind100%29.39 "Hg1 mi
1:00 AM34 °FChilly.No wind100%29.39 "Hg2 mi
12:30 AM36 °FChilly.No wind100%29.36 "Hg2 mi
12:00 AM37 °FChilly.1 mph100%29.36 "Hg2 mi
11:30 PM
Nov 28
43 °FClear.3 mph93%29.36 "Hg5 mi
11:00 PM39 °FClear.1 mph100%29.33 "Hg5 mi
10:30 PM39 °FSnow. Overcast.No wind100%29.33 "Hg2 mi
10:00 PM39 °FClear.2 mph100%29.30 "Hg10 mi
9:30 PM45 °FPassing clouds.3 mph93%29.30 "HgN/A
9:00 PM45 °FClear.3 mph87%29.27 "Hg10 mi
8:30 PM45 °FClear.5 mph93%29.27 "Hg10 mi
8:00 PM45 °FClear.5 mph93%29.24 "Hg10 mi
7:30 PM45 °FClear.2 mph100%29.21 "Hg10 mi
7:00 PM43 °FClear.1 mph93%29.21 "Hg10 mi
6:30 PM46 °FClear.2 mph93%29.18 "Hg10 mi
6:00 PM46 °FPassing clouds.2 mph93%29.15 "HgN/A
5:30 PM48 °FScattered clouds.2 mph87%29.15 "HgN/A
5:00 PM48 °FScattered clouds.5 mph87%29.12 "HgN/A
4:30 PM50 °FScattered clouds.6 mph82%29.09 "HgN/A
4:00 PM50 °FBroken clouds.7 mph82%29.06 "HgN/A
3:30 PM48 °FSprinkles. Broken clouds.8 mph94%29.06 "HgN/A
3:00 PM50 °FBroken clouds.7 mph88%29.03 "HgN/A
2:30 PM50 °FBroken clouds.7 mph88%29.03 "HgN/A
2:00 PM48 °FBroken clouds.3 mph94%29.00 "HgN/A
1:30 PM48 °FBroken clouds.3 mph94%29.00 "HgN/A
1:00 PM48 °FBroken clouds.2 mph94%28.97 "HgN/A
12:30 PM46 °FBroken clouds.No wind100%28.97 "HgN/A
12:00 PM46 °FLight rain. More clouds than sun.2 mph100%28.97 "HgN/A
11:30 AM46 °FLight rain. More clouds than sun.2 mph100%28.97 "HgN/A
11:00 AM46 °FMixture of precip. More clouds than sun.2 mph100%28.94 "Hg5 mi
10:30 AM46 °FMixture of precip. More clouds than sun.5 mph100%28.94 "Hg4 mi
10:00 AM46 °FMixture of precip. Mostly cloudy.2 mph93%28.91 "HgN/A
9:30 AM46 °FLight rain. Partly sunny.2 mph93%28.91 "HgN/A
9:00 AM46 °FLight rain. Broken clouds.2 mph93%28.88 "HgN/A
8:30 AM46 °FPartly cloudy.2 mph100%28.88 "HgN/A
8:00 AM46 °FPartly cloudy.3 mph100%28.85 "HgN/A
7:30 AM46 °FPartly cloudy.9 mph100%28.85 "Hg4 mi
7:00 AM48 °FPassing clouds.5 mph94%28.85 "HgN/A
6:30 AM48 °FPassing clouds.7 mph94%28.82 "HgN/A
6:00 AM50 °FPassing clouds.8 mph82%28.82 "HgN/A
5:30 AM50 °FPassing clouds.14 mph82%28.82 "HgN/A
5:00 AM50 °FClear.16 mph82%28.82 "Hg10 mi
3:30 AM50 °FClear.14 mph88%28.85 "Hg10 mi
2:30 AM52 °FClear.16 mph77%28.88 "Hg10 mi
2:00 AM52 °FClear.18 mph77%28.88 "Hg10 mi
Weather by CustomWeather, © 2014

See weather overviewHow to use our weather pages